Regional Weather Roundup
Issued by NWS

Home | Current Version | Previous Version | Graphics & Text | Print | Product List | Glossary On
Versions: 1 2 3 4 5 6 7 8 9 10 11 12 13 14 15 16 17 18 19 20 21 22 23 24 25 26 27 28 29 30 31 32 33 34 35 36 37 38 39 40 41 42 43 44 45 46 47 48 49 50
000
ASUS43 KBIS 272210
RWRND

NORTH DAKOTA REGIONAL WEATHER ROUNDUP
NATIONAL WEATHER SERVICE BISMARCK ND
500 PM CDT MON APR 27 2015

NOTE: "FAIR" INDICATES FEW OR NO CLOUDS BELOW 12,000 FEET WITH NO
SIGNIFICANT WEATHER AND/OR OBSTRUCTIONS TO VISIBILITY.


NDZ001>003-009>011-017-272300-
NORTHWEST NORTH DAKOTA

CITY           SKY/WX    TMP DP  RH WIND       PRES   REMARKS
WILLISTON      CLOUDY    57  40  52 S6        30.28F
MINOT          CLOUDY    50  41  71 W7        30.28S
MINOT AFB      CLOUDY    51  46  84 W7        30.27F
$$

NDZ018>021-031>035-040>046-272300-
SOUTHWEST NORTH DAKOTA

CITY           SKY/WX    TMP DP  RH WIND       PRES   REMARKS
BISMARCK       CLOUDY    50  41  71 N13       30.29F
DICKINSON      CLOUDY    48  38  68 NW13      30.29S
GARRISON         N/A     49  42  77 NW10      30.29S
HETTINGER ARPT CLOUDY    47  38  71 NW7       30.31S
$$

NDZ004>008-012>016-024-026-027-054-272300-
NORTHEAST NORTH DAKOTA

CITY           SKY/WX    TMP DP  RH WIND       PRES   REMARKS
GRAND FORKS    CLOUDY    66  42  41 N16       30.17S
GRND FRKS AFB  CLOUDY    64  42  45 NE13      30.18R
DEVILS LAKE    CLOUDY    48  41  76 N13       30.25S
$$

NDZ022-023-025-028>030-036>039-047>053-272300-
SOUTHEAST NORTH DAKOTA

CITY           SKY/WX    TMP DP  RH WIND       PRES   REMARKS
FARGO          MOSUNNY   74  25  16 NW7       30.14F
JAMESTOWN      CLOUDY    64  40  41 N15G22    30.19S
$$



USA.gov is the U.S. government's official web portal to all federal, state and local government web resources and services.